Flag for U.S.A. Weather past 2 weeks in Garland, Texas, U.S.A.

Now
93 °F

Scattered clouds.


Feels Like: 96 °F
Forecast: 71 / 96 °F
Wind: 6 mph from Northwest

Location: Mesquite Metro Airport

Current Time: Jul 23, 2014 at 5:43:55 PM

Latest Report: Jul 23, 2014 at 4:50 PM


Visibility: 10 mi

Pressure: 30.02 "Hg

Humidity: 41%

Dew point: 66 °F

Location of GarlandLocation

Historic Weather in Garland — Graph

°F

Garland temperature yesterday

Maximum temperature yesterday: 91 °F (at 6:50 PM)
Minimum temperature yesterday: 73 °F (at 5:15 AM)
Average temperature yesterday: 78 °F

Past Weeks' High & Low Weather Summary

 TemperatureHumidityPressure
High99 °F (Jul 13, 2:55 PM)100% (Jul 12, 5:47 AM)30.23 "Hg (Jul 12, 5:47 AM)
Low63 °F (Jul 20, 6:50 AM)24% (Jul 15, 4:50 PM)29.88 "Hg (Jul 16, 7:50 PM)
Average77 °F72%30.02 "Hg
* Reported Jul 8 4:50 PM — Jul 23 4:50 PM, Garland, Weather by CustomWeather, © 2014

Note: Actual official high and low records may vary slightly from our data, if they occured in-between our weather recording intervals... More about our weather records

Advertising

Garland weather history for previous 24 hours

 ConditionsComfort  
Time TempWeatherWind HumidityBarometerVisibility
4:50 PM
Jul 23
93 °FScattered clouds.6 mph41%30.02 "Hg10 mi
3:50 PM91 °FScattered clouds.6 mph44%30.03 "Hg10 mi
2:55 PM91 °FScattered clouds.8 mph44%30.06 "Hg10 mi
1:50 PM91 °FScattered clouds.6 mph41%30.08 "Hg10 mi
12:50 PM90 °FSunny.No wind46%30.09 "Hg10 mi
11:50 AM86 °FSunny.No wind52%30.10 "Hg10 mi
10:50 AM84 °FSunny.3 mph55%30.12 "Hg10 mi
9:50 AM82 °FSunny.No wind58%30.12 "Hg10 mi
8:50 AM79 °FSunny.No wind74%30.12 "Hg10 mi
7:50 AM73 °FFog.No wind89%30.10 "Hg5 mi
6:50 AM70 °FFog.No wind100%30.10 "Hg4 mi
5:35 AM69 °FClear.No wind95%30.08 "Hg5 mi
5:15 AM70 °FClear.No wind93%30.07 "Hg5 mi
4:55 AM72 °FClear.No wind92%30.08 "Hg7 mi
4:35 AM72 °FClear.No wind93%30.08 "Hg7 mi
3:55 AM72 °FClear.No wind90%30.08 "Hg7 mi
3:15 AM71 °FClear.No wind91%30.08 "Hg10 mi
2:55 AM73 °FClear.No wind88%30.08 "Hg10 mi
12:55 AM76 °FClear.3 mph81%30.07 "Hg10 mi
12:15 AM76 °FClear.No wind80%30.07 "Hg10 mi
11:55 PM
Jul 22
77 °FClear.3 mph79%30.07 "Hg10 mi
11:35 PM77 °FClear.No wind79%30.07 "Hg10 mi
11:15 PM79 °FClear.3 mph75%30.06 "Hg10 mi
10:55 PM80 °FClear.5 mph71%30.06 "Hg10 mi
10:35 PM81 °FClear.5 mph69%30.06 "Hg10 mi
10:15 PM82 °FClear.6 mph66%30.05 "Hg10 mi
9:55 PM82 °FClear.6 mph66%30.05 "Hg10 mi
7:50 PM88 °FSunny.3 mph52%30.03 "Hg10 mi
6:50 PM91 °FSunny.6 mph46%30.02 "Hg10 mi
Weather by CustomWeather, © 2014

See weather overviewHow to use our weather pages